This demonstration page uses our WeatherBlox Daily Observations layout. Learn more.

Left ArrowRight Arrow

39.29038, -76.61219

Hourly Observations for May 17, 2022

Temp ( °F °C ) Dew Point ( °F °C ) Humidity (%) Winds ( mph kmh ) Pressure ( in mb ) Visibility ( mi km ) Precip ( " mm )
12:54 am 00:54 Mostly Clear 57 13.9 51 10.6 81 81 SW 5 7 29.81 1010 10 16 0.00 0.00
1:54 am 01:54 Clear 56 13.3 50 10 81 81 W 5 7 29.81 1010 10 16 0.00 0.00
2:54 am 02:54 Clear 58 14.4 51 10.6 78 78 WSW 6 9 29.82 1010 10 16 0.00 0.00
3:54 am 03:54 Clear 55 12.8 50 10 83 83 WSW 5 7 29.82 1010 10 16 0.00 0.00
4:54 am 04:54 Clear 58 14.4 50 10 75 75 SW 6 9 29.83 1010 10 16 0.00 0.00
5:54 am 05:54 Sunny 56 13.3 48 8.9 75 75 WSW 5 7 29.83 1010 10 16 0.00 0.00
6:54 am 06:54 Sunny 58 14.4 50 10 75 75 W 6 9 29.84 1011 10 16 0.00 0.00
7:54 am 07:54 Sunny 66 18.9 51 10.6 59 59 WSW 7 11 29.86 1011 10 16 0.00 0.00
8:54 am 08:54 Sunny 70 21.1 48 8.9 46 46 WSW 13 20 29.87 1012 10 16 0.00 0.00
9:54 am 09:54 Sunny 73 22.8 48 8.9 41 41 WSW 9 15 29.87 1012 10 16 0.00 0.00
10:54 am 10:54 Sunny 76 24.4 45 7.2 33 33 WSW 15 24 29.85 1011 10 16 0.00 0.00
11:54 am 11:54 Mostly Sunny 78 25.6 45 7.2 31 31 W 13 20 29.84 1011 10 16 0.00 0.00
12:54 pm 12:54 Partly Cloudy 80 26.7 48 8.9 33 33 W 14 22 29.83 1010 10 16 0.00 0.00
1:54 pm 13:54 Partly Cloudy 79 26.1 45 7.2 30 30 WSW 20 31 29.81 1010 10 16 0.00 0.00
2:54 pm 14:54 Partly Cloudy 82 27.8 48 8.9 31 31 WSW 13 20 29.79 1009 10 16 0.00 0.00
3:54 pm 15:54 Partly Cloudy 81 27.2 44 6.7 27 27 WNW 24 39 29.78 1008 10 16 0.00 0.00
4:54 pm 16:54 Partly Cloudy 81 27.2 43 6.1 26 26 W 18 30 29.78 1008 10 16 0.00 0.00
5:54 pm 17:54 Partly Cloudy 82 27.8 45 7.2 27 27 W 16 26 29.79 1009 10 16 0.00 0.00
6:54 pm 18:54 Mostly Sunny 79 26.1 46 7.8 31 31 W 15 24 29.80 1009 10 16 0.00 0.00
7:54 pm 19:54 Mostly Sunny 76 24.4 44 6.7 32 32 NW 8 13 29.83 1010 10 16 0.00 0.00
8:54 pm 20:54 Mostly Clear 73 22.8 43 6.1 34 34 NW 6 9 29.86 1011 10 16 0.00 0.00
9:54 pm 21:54 Mostly Clear 69 20.6 43 6.1 39 39 NW 3 6 29.89 1012 10 16 0.00 0.00
10:54 pm 22:54 Mostly Clear 68 20 43 6.1 40 40 NNW 5 7 29.91 1013 10 16 0.00 0.00
11:54 pm 23:54 Mostly Clear 66 18.9 42 5.6 42 42 NW 7 11 29.93 1014 10 16 0.00 0.00

Powered by AerisWeather